#timestamp,LO_Frequency,Hit,StdDev 
1642492815.6,286047005.7,N
1642492835.4,286047003.7,N
1642492855.2,286047003.3,N
1642492875.1,286047003.0,N
1642492876.0,286047003.0,N
1642492895.8,286047005.8,N
1642492915.7,286047005.6,N
1642492935.5,286047004.1,N
1642492955.3,286047007.4,N
1642492975.2,286047008.6,N
1642492995.0,286047008.6,N
1642492995.9,286047008.6,N
1642493015.8,286047006.2,N
1642493035.6,286047010.5,Y
1642493055.4,286047004.5,P
1642493075.3,286047004.7,P
1642493095.1,286047008.8,P
1642493115.8,286047006.7,Y
1642493135.7,286046999.3,P
1642493155.5,286047000.9,N
1642493175.4,286047000.5,N
1642493195.2,286047000.8,N
1642493215.0,286046996.9,N
1642493215.9,286046996.9,N
1642493235.8,286046996.1,N
1642493255.6,286046993.4,N
1642493275.5,286046992.1,N
1642493295.3,286046994.0,N
1642493315.1,286046995.8,N
1642493335.9,286046997.1,N
1642493355.7,286046996.8,N
1642493375.5,286046995.0,N
1642493395.4,286046995.3,N
1642493415.2,286046995.5,N
1642493435.0,286046995.9,N
1642493436.0,286046995.9,N
1642493455.8,286046993.3,N
1642493475.6,286046994.4,N
1642493495.5,286046991.2,N
1642493515.3,286046987.5,Y
1642493535.1,286046991.5,P
1642493555.9,286046991.6,P
1642493575.7,286046989.8,P
1642493595.6,286046990.9,Y
1642493615.4,286046999.4,P
1642493635.2,286046997.1,N
1642493655.1,286047001.1,N
1642493656.0,286047001.1,N
1642493675.8,286046996.7,N
1642493695.6,286046997.0,N
1642493715.5,286046998.7,N
1642493735.3,286047001.0,N
1642493755.2,286047000.1,N
1642493775.9,286047000.0,N
1642493795.7,286046999.5,N
1642493815.6,286046997.5,N
1642493835.4,286046995.2,N
1642493855.2,286046995.3,N
1642493875.1,286046996.2,N
1642493876.0,286046996.2,N
1642493895.8,286046998.0,N
1642493915.7,286046993.6,N
1642493935.5,286046994.7,N
1642493955.3,286046995.1,N
1642493975.2,286046994.4,N
1642493995.0,286046992.2,Y
1642493995.9,286046992.2,P
1642494015.8,286046996.4,N
1642494035.6,286046996.1,N
1642494055.4,286046993.7,Y
1642494075.3,286046999.2,P
1642494095.1,286046998.9,N
1642494115.8,286046999.0,N
1642494135.7,286046998.9,N
1642494155.5,286046999.1,N
1642494175.4,286047001.2,N
1642494195.2,286046997.2,N
1642494215.0,286046998.0,N
1642494215.9,286046998.0,N
1642494235.8,286046997.2,N
1642494255.6,286046995.6,Y
1642494275.4,286046996.1,P
1642494295.3,286046993.7,P
1642494315.1,286046999.1,N
1642494335.9,286047001.1,N
1642494355.7,286047000.8,N
1642494375.5,286046998.3,N
1642494395.4,286046999.3,N
1642494415.2,286046996.8,N
1642494435.0,286046998.9,N
1642494435.9,286046998.9,N
1642494455.8,286047001.1,N
1642494475.6,286046997.5,N
1642494495.5,286046997.4,N
1642494515.3,286046999.0,N
1642494535.1,286046997.4,N
1642494555.9,286046995.7,N
1642494575.7,286046996.0,N
1642494595.5,286046993.8,Y
1642494615.4,286046997.7,P
1642494635.2,286046994.2,P
1642494655.1,286046993.3,P
1642494656.0,286046993.3,Y
1642494675.8,286047000.9,P
1642494695.6,286046999.9,N
1642494715.5,286047002.4,N
1642494735.3,286046999.8,N
1642494755.2,286047000.7,N
1642494775.9,286047002.7,N
1642494795.7,286046998.3,N
1642494815.6,286046999.0,N
1642494835.4,286046998.1,N
1642494855.2,286046998.2,N
1642494875.1,286046997.4,N
1642494876.0,286046997.4,N
1642494895.8,286046996.3,N
1642494915.7,286046993.5,Y
1642494935.5,286046996.7,P
1642494955.3,286046997.0,N
1642494975.2,286047000.4,N
1642494995.0,286047002.1,N
1642494995.9,286047002.1,N
1642495015.7,286047004.0,N
1642495035.6,286047005.6,N
1642495055.4,286047005.6,N
1642495075.3,286047006.9,N
1642495095.1,286047003.7,N
1642495096.0,286047003.7,N
1642495115.8,286047004.0,N
1642495135.7,286047004.5,N
1642495155.5,286047005.8,N
1642495175.3,286047004.4,N
1642495195.2,286047002.2,N
1642495215.0,286047002.1,N
1642495215.9,286047002.1,N
1642495235.8,286047001.0,N
1642495255.6,286046998.7,N
1642495275.4,286046998.3,N
1642495295.3,286046996.7,N
1642495315.1,286046999.0,N
1642495335.8,286046999.0,N
1642495355.7,286047000.6,N
1642495375.5,286046998.8,N
1642495395.4,286046999.0,N
1642495415.2,286047001.0,N
1642495435.0,286047011.9,Y
1642495435.9,286046999.3,P
1642495455.8,286046999.4,N
1642495475.6,286046997.6,N
1642495495.5,286046997.8,N
1642495515.3,286046999.5,N
1642495535.1,286046997.9,N
1642495555.9,286046995.4,Y
1642495575.7,286046995.3,P
1642495595.5,286046995.4,N
1642495615.4,286046997.5,N
1642495635.2,286046997.5,N
1642495655.1,286046999.2,N
1642495656.0,286046999.2,N
1642495675.8,286046997.4,N
1642495695.6,286046997.1,N
1642495715.5,286046996.9,N
1642495735.3,286046997.4,N
1642495755.2,286046999.2,N
1642495775.9,286046998.4,N
1642495795.7,286047011.9,Y
1642495815.6,286047005.4,P
1642495835.4,286047008.3,N
1642495855.2,286047008.3,N
1642495875.1,286047008.6,N
1642495876.0,286047008.6,N
1642495895.8,286047008.7,N
1642495915.7,286047006.6,N
1642495935.5,286047010.6,N
1642495955.3,286047010.1,N
1642495975.2,286047010.7,Y
1642495995.0,286047000.1,P
1642495995.9,286047000.1,N
1642496015.8,286047002.8,N
1642496035.6,286047000.3,N
1642496055.4,286046999.9,N
1642496075.3,286047000.0,N
1642496095.1,286047002.7,N
1642496115.8,286047001.0,N
1642496135.7,286047002.8,N
1642496155.5,286047001.1,N
1642496175.3,286047002.4,N
1642496195.2,286047000.8,N
1642496215.0,286047001.1,N
1642496215.9,286047001.1,N
1642496235.8,286046999.7,N
1642496255.6,286047002.8,N
1642496275.4,286047002.3,N
1642496295.3,286047002.7,N
1642496315.1,286047000.8,N
1642496335.9,286047000.7,N
1642496355.7,286047000.5,N
1642496375.5,286047002.2,N
1642496395.4,286047001.5,N
